{"data":{"norad_id":58491,"intl_designator":"2023-186U","name":"STARLINK-30953","alt_names":[],"object_type":"PAYLOAD","status":"ACTIVE","operator":null,"country":"US","launch_date":"2023-12-03","launch_site_code":"AFETR","launch_vehicle":null,"mission":null,"orbit_class":"UNKNOWN","rcs_meters":null,"size_class":null,"mass_kg":null,"dimensions":null,"purposes":["comms"],"wikipedia_slug":null,"has_3d_model":false,"image_url":null,"decayed_at":null,"tle_current":{"epoch":"2026-05-25T03:34:35.717664Z","epoch_age_seconds":52310,"freshness":"FRESH","line1":"1 58491U 23186U   26145.14902451  .00003517  00000+0  13728-3 0  9990","line2":"2 58491  43.0009 195.6985 0001639 264.6872  95.3793 15.27580442139582","mean_motion":15.27580442,"eccentricity":0.0001639,"inclination_deg":43.0009,"raan_deg":195.6985,"arg_perigee_deg":264.6872,"mean_anomaly_deg":95.3793,"bstar":0.00013728,"rev_number":13958,"period_min":94.266721437901,"perigee_km":481.92322434875,"apogee_km":484.17232071718,"semimajor_km":6861.184772533,"source":"CELESTRAK","updated_at":"2026-05-25T13:38:18.653791Z"}}}